Regional Weather Roundup
Issued by NWS

Home | Current Version | Previous Version | Text Only | Print | Product List | Glossary Off
Versions: 1 2 3 4 5 6 7 8 9 10 11 12 13 14 15 16 17 18 19 20 21 22 23 24 25 26 27 28 29 30 31 32 33 34 35 36 37 38 39 40 41 42 43 44 45 46 47 48 49 50

000
ASUS45 KTFX 272319
RWRMT
MONTANA REGIONAL WEATHER ROUNDUP
NATIONAL WEATHER SERVICE GREAT FALLS MT
500 PM MDT THU AUG 27 2015

NOTE: "FAIR" INDICATES FEW OR NO CLOUDS BELOW 12000 FEET WITH NO
SIGNIFICANT WEATHER AND/OR OBSTRUCTIONS TO VISIBILITY.

MTZ001>007-043-280000-
WEST OF THE DIVIDE

CITY           SKY/WX    TMP DP  RH WIND       PRES   REMARKS
KALISPELL      CLOUDY    87  39  18 S8        29.97F SMOKE
MISSOULA       CLOUDY    86  41  20 S7        30.00S HAZE
BUTTE          CLOUDY    77  36  22 N7        30.18R
MULLAN PASS    SUNNY     73  36  25 N5        30.23F HAZE
DEER LODGE       N/A     77  46  33 S3        30.14S
EUREKA           N/A     90  37  15 S13G20    29.96S
HAMILTON         N/A     81  48  32 N2        30.03S
LIBBY            N/A     88  39  18 W6        29.98F
PLAINS           N/A     91  43  18 W9        29.98F
RONAN            N/A     89  41  18 SW6       30.04F
THOMPSON FALLS   N/A     90  39  16 NW10      30.00F
$$

MTZ008-052>055-280000-
SOUTHWEST MONTANA

CITY           SKY/WX    TMP DP  RH WIND       PRES   REMARKS
BOZEMAN        PTSUNNY   84  38  19 VRB3      30.09F HAZE
DILLON         LGT RAIN  79  40  24 CALM      30.13S
W YELLOWSTONE  PTSUNNY   64  37  36 N7        30.30F
THREE FORKS      N/A     84  27  12 NE7       30.06F
TWIN BRIDGES     N/A     80  41  25 W9        30.11F
$$

MTZ009-010-012-014-046-048-049-054-280000-
EAST SLOPES AND CENTRAL MONTANA

CITY           SKY/WX    TMP DP  RH WIND       PRES   REMARKS
CUT BANK       CLOUDY    86  35  16 W16       29.98S HAZE
GREAT FALLS    CLOUDY    90  34  13 SW12      29.97F HAZE
MALMSTROM AFB  PTSUNNY   88  37  16 SW13      29.96F HAZE
HELENA         CLOUDY    86  41  20 E9        30.02F SMOKE
CONRAD           N/A     84  52  33 NW2       30.01F
$$

MTZ011-013-016-021-045-047-050-051-280000-
NORTH CENTRAL MONTANA

CITY           SKY/WX    TMP DP  RH WIND       PRES   REMARKS
HAVRE          MOSUNNY   86  46  24 S12       29.89F HAZE
LEWISTOWN      CLOUDY    85  44  23 CALM      30.03F HAZE
N BAR RANCH      N/A     82  43  24 NW7       30.08S
CHINOOK          N/A     86  48  26 W5        29.89S
FORT BENTON      N/A     91  34  13 NW5         N/A
$$

MTZ017>020-022>027-061-062-280000-
NORTHEAST MONTANA

CITY           SKY/WX    TMP DP  RH WIND       PRES   REMARKS
GLASGOW        SUNNY     90  53  28 CALM      29.87F
JORDAN           N/A     92  48  22 SW9       29.91S
SIDNEY         MOSUNNY   86  66  51 CALM      29.88S
WOLF POINT     MOSUNNY   91  57  31 W6        29.87F
MALTA            N/A     88  58  36 SW5       29.85F
PLENTYWOOD       N/A     90  54  29 S9        29.88F
POPLAR           N/A     90  54  29 CALM      29.88S
SCOBEY           N/A     89  50  26 SW10      29.89F
$$

MTZ028>42-056>058-280000-
SOUTHCENTRAL AND SOUTHEAST MONTANA

CITY           SKY/WX    TMP DP  RH WIND       PRES   REMARKS
BAKER          SUNNY     90  56  31 N8        29.94F
BILLINGS       CLOUDY    84  43  23 W10       30.04F
LIVINGSTON     MOSUNNY   83  39  21 SW14      30.11S
MILES CITY     MOSUNNY   92  47  21 VRB5      29.91F
EKALAKA          N/A     85  48  27 W7        29.96F
FORSYTH          N/A     90  46  22 SW5       29.93S
LAUREL           N/A     84  42  22 SW12      30.04S
ROUNDUP          N/A     88  41  19 SW13      29.92F
$$

REGIONAL REPORTS...DAKOTAS

CITY           SKY/WX    TMP DP  RH WIND       PRES   REMARKS
WILLISTON      MOSUNNY   86  62  44 S7        29.88F
MINOT          MOSUNNY   82  65  56 SE5       29.88F
DICKINSON      SUNNY     87  57  35 E12       29.91S
BEACH            N/A     82  57  42 NE9       29.93F
CROSBY           N/A     86  52  30 S7        29.87F
BISMARCK       MOSUNNY   85  66  53 SE9       29.92S
GRAND FORKS    PTSUNNY   77  64  64 S8        29.90F
FARGO          CLOUDY    79  65  62 S7        29.92S
BUFFALO SD       N/A     79  63  57 E7        29.88S
RAPID CITY     PTSUNNY   78  57  48 NE10      30.01S
$$

REGIONAL REPORTS...WYOMING/IDAHO/WASHINGTON

CITY           SKY/WX    TMP DP  RH WIND       PRES   REMARKS
GILLETTE       PTSUNNY   81  48  31 W7        30.05F
SHERIDAN       MOSUNNY   86  44  23 NW15      30.03F
BUFFALO WY     MOSUNNY   83  43  24 N14       30.11S
CODY           CLOUDY    64  46  52 NW17G28   30.26R
YELLOWSTONE LA   N/A     54  49  83 CALM      30.39R
IDAHO FALLS    MOSUNNY   81  45  28 NW21      30.16F THUNDER
SALMON         MOSUNNY   88  46  23 N6        29.99F
BOISE          SUNNY     92  39  15 NW9       30.05F
SPOKANE        PTSUNNY   88  39  17 SW17G23   30.01F
$$

REGIONAL REPORTS...ALBERTA

CITY           SKY/WX    TMP DP  RH WIND       PRES   REMARKS
EDMONTON       SUNNY     79  52  38 SW6       29.80F
CALGARY        CLOUDY    75  55  50 SE5       29.90F SMOKE
LETHBRIDGE     CLOUDY    88  36  15 W25G39    29.90  SMOKE
MEDICINE HAT   CLOUDY    84  50  30 W5        29.86F SMOKE
WATERTON GATE    N/A     81  37  21 SW13G25     N/A
CARDSTON         N/A     82  37  20 SW7         N/A
MILK RIVER       N/A     86  39  19 W10         N/A
ONEFOUR          N/A     90  39  17 W10G20      N/A
$$

REGIONAL REPORTS...SASKATCHEWAN

CITY           SKY/WX    TMP DP  RH WIND       PRES   REMARKS
SWIFT CURRENT  MOSUNNY   82  50  32 W14       29.86S
REGINA         CLOUDY    81  66  61 SW3       29.83F
SASKATOON      PTSUNNY   75  61  60 W5        29.84F
CYPRESS HILLS    N/A     77  41  27 W10G18      N/A
VAL MARIE        N/A     84  48  28 W10         N/A
ROCKGLEN         N/A     82  48  30 S15         N/A
ASSINIBOIA       N/A     82  48  30 SW7         N/A
$$


USA.gov is the U.S. government's official web portal to all federal, state and local government web resources and services.